Location: Misciano
(43.5000°N, 11.9500°E)
Time: 17:48:00
(UTC+00:00)

USA 267 - Pass Details

Date: 13 August 2020
Orbit: 1101 x 1106 km, 123.0° (Epoch: 22 September)

Event Time Altitude Azimuth Distance (km) Brightness Sun altitude
Rises 19:31:55 0° 52° (NE) 3,928 6.0 -12.7°
Reaches altitude 10° 19:34:31 10° 58° (ENE) 2,968 5.3 -13.1°
Maximum altitude 19:40:50 49° 132° (SE) 1,399 3.4 -14.0°
Drops below altitude 10° 19:47:07 10° 206° (SSW) 2,957 5.4 -14.9°
Sets 19:49:42 0° 211° (SSW) 3,912 6.1 -15.3°
